Hourly Data Report for July 29, 2021

POND INLET A
NUNAVUT
Current Station Operator: NAVCAN

72°41'22.000" N
77°58'08.000" W
61.60 m
2403206
71095
YIO

Download Data

Hourly Data (July 2021)
Hourly Data Report for July 29, 2021
TIME
LST
Temp Definition
°C
Dew Point Definition
°C
Rel Hum Definition
%
Precip. Amount Definition
mm

Wind Dir Definition
10's deg

Wind Spd Definition
km/h
Visibility Definition
km
Stn Press Definition
kPa
Hmdx Definition


Wind Chill Definition


Weather Definition


00:00 5.9 4.4 90 0.0 11 5 16.1 100.30     LegendNANA
01:00 6.8 3.7 81 0.0 17 5 16.1 100.31     LegendNANA
02:00 6.9 4.9 87 0.0 18 8 16.1 100.32     LegendNANA
03:00 5.8 4.5 91 0.0 20 5 16.1 100.34     LegendNANA
04:00 6.7 4.5 86 0.0 13 5 16.1 100.34     LegendNANA
05:00 6.3 4.2 86 0.0 6 4 16.1 100.37     LegendNANA
06:00 6.6 5.1 90 0.0   0 16.1 100.41     LegendNANA
07:00 7.6 5.0 83 0.0 28 5 16.1 100.45     LegendNANA
08:00 6.5 4.0 84 0.0 5 9 16.1 100.48     LegendNANA
09:00 8.5 4.3 75 0.0 5 8 16.1 100.50     LegendNANA
10:00 8.6 3.8 72 0.0 4 5 16.1 100.50     LegendNANA
11:00 8.2 4.5 78 0.0 4 5 16.1 100.52     LegendNANA
12:00 9.1 4.1 71 0.0 5 8 16.1 100.53     LegendNANA
13:00 8.6 4.1 73 0.0 3 11 16.1 100.52     LegendNANA
14:00 8.7 3.7 71 0.0 6 11 16.1 100.50     LegendNANA
15:00 9.6 3.6 66 0.0 5 22 16.1 100.46     LegendNANA
16:00 10.0 3.8 65 0.0 5 17 16.1 100.43     LegendNANA
17:00 10.3 3.3 62 0.0 5 18 16.1 100.41     LegendNANA
18:00 10.2 3.1 61 0.0 4 18 16.1 100.39     LegendNANA
19:00 5.8 3.8 87 0.0 24 26 16.1 100.47     LegendNANA
20:00 5.2 4.0 92 0.0 23 24 16.1 100.56     Rain
21:00 4.9 4.3 96 0.2 19 8 9.7 100.64     Rain, Fog
22:00 6.1 4.9 92 0.2 LegendMM 5 16.1 100.63     Rain
23:00 6.7 4.8 88 0.0 LegendMM 4 16.1 100.63     LegendNANA

Notes on Data Quality.

Legend

  • E = Estimated
  • M = Missing
  • NA = Not Available*
  • [empty] = Indicates an unobserved value
Date modified: